EUTELSAT HOTBIRD 13B

Last updated on Sun Oct 06 2024 00:02:38 GMT+0000 (Coordinated Universal Time)

1 29270U 06032A 24279.54749605 .00000166 00000+0 00000+0 0 9996 2 29270 0.0599 65.0751 0003824 140.8802 38.9570 1.00270889 41090
UTC large
Height (km)
Speed (km/s)
/
Latitude / Longitude
Inclination (degrees)
Orbital Period (minutes)
Azimuth
Elevation
Range (km)
Doppler Factor

Next 0 passes for location: London (51.5072 / 0.1276)

Sorry there are no passes over London.